QPF
0.00 0.00 0.00 0.00 0.00 0.00 0.00 0.00 0.00 0.00 0.00 0.00 0.00 0.00 0.00 0.00 0.00 0.00 0.00 0.00 0.00 0.00 0.00 0.00 0.00 0.00 0.00 0.00 0.00 0.00 0.00 0.00 0.00 0.00 0.00 0.00 0.00 0.00 0.00 0.00 0.00 0.00 0.00
0.00 0.00 0.00 0.00 0.00 0.00 0.00 0.00 0.00 0.00 0.00 0.00 0.00 0.00 0.00 0.00 0.00 0.00 0.00 0.00 0.00 0.00 0.00 0.00 0.00 0.00 0.00 0.00 0.00 0.00 0.00 0.00 0.00 0.00 0.00 0.00 0.00 0.00 0.00 0.00 0.00 0.00 0.00
0.00 0.00 0.00 0.00 0.00 0.00 0.00 0.00 0.00 0.00 0.00 0.00 0.00 0.00 0.00 0.00 0.00 0.00 0.00 0.00 0.00 0.00 0.00 0.00 0.00 0.00 0.00 0.00 0.00 0.00 0.00 0.00 0.00 0.00 0.00 0.00 0.00 0.00 0.00 0.00 0.00 0.00 0.00
0.00 0.00 0.00 0.00 0.00 0.00 0.00 0.00 0.00 0.00 0.00 0.00 0.00 0.00 0.00 0.00 0.00 0.00 0.00 0.00 0.00 0.00 0.00 0.00 0.00 0.00 0.00 0.00 0.00 0.00 0.00 0.00 0.00 0.00 0.00 0.00 0.00 0.00 0.00 0.00 0.00 0.00 0.00
0.00 0.00 0.00 0.00 0.00 0.00 0.00 0.00 0.00 0.00 0.00 0.00 0.00 0.00 0.00 0.00 0.00 0.00 0.00 0.00 0.00 0.00 0.00 0.00 0.00 0.00 0.00 0.00 0.00 0.00 0.00 0.00 0.00 0.00 0.00 0.00 0.00 0.00 0.00 0.00 0.00 0.00 0.00
0.00 0.00 0.00 0.00 0.00 0.00 0.00 0.00 0.00 0.00 0.00 0.00 0.00 0.00 0.00 0.00 0.00 0.00 0.00 0.00 0.00 0.00 0.00 0.00 0.00 0.00 0.00 0.00 0.00 0.00 0.00 0.00 0.00 0.00 0.00 0.00 0.00 0.00 0.00 0.00 0.00 0.01 0.01
0.00 0.00 0.00 0.00 0.00 0.00 0.00 0.00 0.00 0.00 0.00 0.00 0.00 0.00 0.00 0.00 0.00 0.00 0.00 0.00 0.00 0.00 0.00 0.00 0.00 0.00 0.00 0.00 0.00 0.00 0.00 0.00 0.00 0.00 0.01 0.00 0.00 0.00 0.01 0.01 0.01 0.01 0.01
0.00 0.00 0.00 0.00 0.00 0.00 0.00 0.00 0.00 0.00 0.00 0.00 0.00 0.00 0.00 0.00 0.00 0.00 0.00 0.00 0.00 0.00 0.00 0.00 0.00 0.00 0.00 0.00 0.00 0.00 0.00 0.00 0.00 0.00 0.00 0.00 0.00 0.01 0.01 0.02 0.01 0.01 0.00
0.00 0.00 0.00 0.00 0.00 0.00 0.00 0.00 0.00 0.00 0.00 0.00 0.00 0.00 0.00 0.00 0.00 0.00 0.00 0.00 0.00 0.00 0.00 0.00 0.00 0.00 0.00 0.00 0.00 0.00 0.00 0.00 0.00 0.00 0.00 0.00 0.00 0.00 0.00 0.00 0.00 0.01 0.01
0.00 0.00 0.00 0.00 0.00 0.00 0.00 0.00 0.00 0.00 0.00 0.00 0.00 0.00 0.00 0.00 0.00 0.00 0.00 0.00 0.00 0.00 0.00 0.00 0.00 0.00 0.00 0.00 0.00 0.00 0.00 0.00 0.00 0.00 0.00 0.00 0.00 0.00 0.00 0.00 0.00 0.01 0.02
0.00 0.00 0.00 0.00 0.00 0.00 0.00 0.00 0.01 0.01 0.01 0.00 0.00 0.00 0.00 0.00 0.00 0.00 0.00 0.00 0.00 0.00 0.00 0.00 0.00 0.00 0.00 0.00 0.00 0.00 0.00 0.00 0.00 0.00 0.00 0.00 0.00 0.00 0.00 0.00 0.00 0.00 0.01
0.00 0.00 0.00 0.00 0.00 0.00 0.00 0.00 0.00 0.01 0.01 0.00 0.00 0.00 0.00 0.00 0.00 0.00 0.00 0.00 0.00 0.00 0.00 0.00 0.00 0.00 0.00 0.00 0.00 0.00 0.00 0.01 0.01 0.00 0.00 0.00 0.00 0.00 0.00 0.00 0.00 0.00 0.00
0.00 0.00 0.00 0.00 0.00 0.00 0.00 0.00 0.00 0.00 0.00 0.00 0.00 0.00 0.00 0.00 0.00 0.00 0.00 0.00 0.00 0.00 0.00 0.00 0.00 0.00 0.01 0.01 0.00 0.00 0.01 0.01 0.00 0.00 0.00 0.00 0.00 0.00 0.00 0.00 0.00 0.00 0.00
0.00 0.00 0.00 0.00 0.00 0.00 0.00 0.00 0.00 0.00 0.00 0.00 0.00 0.00 0.00 0.00 0.00 0.00 0.00 0.00 0.00 0.00 0.00 0.00 0.00 0.00 0.01 0.01 0.01 0.00 0.01 0.01 0.00 0.00 0.00 0.00 0.00 0.00 0.00 0.00 0.00 0.00 0.00
0.00 0.00 0.00 0.00 0.00 0.00 0.00 0.00 0.00 0.00 0.00 0.00 0.00 0.00 0.00 0.00 0.00 0.00 0.00 0.00 0.00 0.00 0.00 0.01 0.01 0.01 0.01 0.01 0.01 0.01 0.01 0.01 0.00 0.00 0.00 0.00 0.00 0.00 0.00 0.00 0.00 0.00 0.00
0.00 0.00 0.00 0.00 0.00 0.00 0.00 0.00 0.00 0.00 0.00 0.00 0.00 0.00 0.00 0.00 0.00 0.00 0.00 0.01 0.01 0.01 0.03 0.02 0.01 0.01 0.01 0.01 0.01 0.01 0.01 0.01 0.00 0.00 0.00 0.00 0.00 0.00 0.00 0.00 0.00 0.00 0.00
0.00 0.00 0.00 0.00 0.00 0.00 0.00 0.00 0.00 0.00 0.00 0.00 0.00 0.00 0.01 0.01 0.01 0.01 0.01 0.01 0.02 0.03 0.05 0.03 0.01 0.01 0.01 0.01 0.01 0.01 0.01 0.01 0.00 0.00 0.00 0.00 0.00 0.00 0.00 0.00 0.00 0.00 0.00
0.00 0.00 0.00 0.00 0.00 0.00 0.00 0.00 0.00 0.00 0.00 0.00 0.00 0.00 0.01 0.01 0.01 0.01 0.01 0.02 0.02 0.03 0.03 0.02 0.02 0.01 0.01 0.02 0.01 0.01 0.01 0.01 0.01 0.00 0.00 0.00 0.00 0.00 0.00 0.00 0.00 0.00 0.00
0.00 0.00 0.00 0.00 0.00 0.00 0.00 0.00 0.00 0.00 0.00 0.00 0.00 0.00 0.00 0.01 0.01 0.01 0.02 0.03 0.02 0.01 0.01 0.01 0.01 0.02 0.02 0.02 0.02 0.01 0.01 0.01 0.01 0.00 0.00 0.00 0.00 0.00 0.00 0.00 0.00 0.00 0.00
0.00 0.00 0.00 0.00 0.00 0.00 0.00 0.00 0.00 0.00 0.00 0.00 0.00 0.00 0.00 0.00 0.01 0.01 0.01 0.02 0.02 0.01 0.01 0.01 0.01 0.01 0.01 0.02 0.02 0.01 0.01 0.01 0.01 0.00 0.00 0.00 0.00 0.00 0.00 0.00 0.00 0.00 0.00
0.00 0.00 0.00 0.00 0.00 0.00 0.00 0.00 0.00 0.00 0.00 0.00 0.00 0.00 0.01 0.01 0.00 0.00 0.01 0.01 0.01 0.01 0.01 0.01 0.01 0.01 0.01 0.01 0.01 0.01 0.01 0.01 0.01 0.01 0.00 0.00 0.00 0.00 0.00 0.00 0.00 0.00 0.00
0.00 0.00 0.00 0.00 0.00 0.00 0.00 0.00 0.00 0.00 0.00 0.00 0.00 0.00 0.01 0.01 0.00 0.00 0.00 0.00 0.00 0.00 0.00 0.01 0.01 0.01 0.01 0.01 0.01 0.01 0.01 0.01 0.01 0.01 0.00 0.00 0.00 0.00 0.00 0.00 0.00 0.00 0.00
0.00 0.00 0.00 0.00 0.00 0.00 0.00 0.00 0.00 0.00 0.00 0.00 0.00 0.00 0.00 0.00 0.00 0.00 0.00 0.00 0.00 0.00 0.00 0.00 0.00 0.01 0.01 0.01 0.01 0.01 0.01 0.01 0.01 0.01 0.00 0.00 0.00 0.00 0.00 0.00 0.00 0.00 0.00
0.00 0.00 0.00 0.00 0.00 0.00 0.00 0.00 0.00 0.00 0.00 0.00 0.00 0.00 0.00 0.00 0.00 0.00 0.00 0.00 0.00 0.00 0.00 0.00 0.00 0.01 0.01 0.01 0.01 0.01 0.01 0.01 0.01 0.01 0.00 0.00 0.00 0.00 0.00 0.00 0.00 0.00 0.00
0.00 0.00 0.00 0.00 0.00 0.00 0.00 0.00 0.00 0.00 0.00 0.00 0.00 0.00 0.00 0.00 0.00 0.00 0.00 0.00 0.00 0.00 0.00 0.00 0.00 0.00 0.01 0.01 0.01 0.01 0.01 0.01 0.01 0.00 0.00 0.00 0.00 0.00 0.00 0.00 0.00 0.00 0.00
0.00 0.00 0.00 0.00 0.00 0.00 0.00 0.00 0.00 0.00 0.00 0.00 0.00 0.00 0.00 0.00 0.00 0.00 0.00 0.00 0.00 0.00 0.00 0.00 0.00 0.00 0.00 0.00 0.00 0.00 0.00 0.00 0.00 0.00 0.00 0.00 0.00 0.00 0.00 0.00 0.00 0.00 0.00
MSLP
1022.14 1022.93 1023.75 1024.56 1025.32 1026.02 1026.67 1027.28 1027.87 1028.46 1029.07 1029.70 1030.34 1030.97 1031.56 1032.10 1032.58 1033.00 1033.36 1033.71 1034.04 1034.39 1034.75 1035.10 1035.44 1035.73 1035.94 1036.04 1036.02 1035.90 1035.69 1035.40 1035.07 1034.71 1034.34 1033.95 1033.53 1033.06 1032.53 1031.92 1031.22 1030.47 1029.66
1021.97 1022.76 1023.57 1024.36 1025.11 1025.81 1026.46 1027.08 1027.69 1028.30 1028.92 1029.56 1030.20 1030.82 1031.40 1031.93 1032.39 1032.80 1033.17 1033.52 1033.86 1034.20 1034.56 1034.92 1035.25 1035.54 1035.75 1035.86 1035.86 1035.77 1035.58 1035.33 1035.03 1034.69 1034.32 1033.91 1033.46 1032.94 1032.36 1031.69 1030.95 1030.15 1029.32
1021.72 1022.53 1023.35 1024.14 1024.90 1025.60 1026.25 1026.88 1027.49 1028.10 1028.72 1029.35 1029.96 1030.56 1031.11 1031.61 1032.05 1032.44 1032.79 1033.13 1033.46 1033.81 1034.17 1034.53 1034.87 1035.16 1035.38 1035.52 1035.56 1035.50 1035.36 1035.15 1034.88 1034.56 1034.20 1033.78 1033.31 1032.76 1032.13 1031.42 1030.64 1029.80 1028.95
1021.33 1022.20 1023.05 1023.86 1024.62 1025.32 1025.98 1026.61 1027.22 1027.83 1028.44 1029.04 1029.64 1030.19 1030.71 1031.16 1031.57 1031.93 1032.26 1032.58 1032.91 1033.25 1033.61 1033.97 1034.32 1034.62 1034.87 1035.04 1035.12 1035.11 1035.02 1034.85 1034.62 1034.32 1033.97 1033.55 1033.06 1032.49 1031.84 1031.11 1030.31 1029.46 1028.59
1020.80 1021.72 1022.61 1023.45 1024.22 1024.93 1025.60 1026.23 1026.85 1027.46 1028.06 1028.65 1029.22 1029.74 1030.22 1030.64 1031.01 1031.34 1031.65 1031.95 1032.26 1032.59 1032.94 1033.30 1033.66 1033.98 1034.25 1034.45 1034.56 1034.60 1034.55 1034.42 1034.23 1033.96 1033.63 1033.22 1032.73 1032.16 1031.51 1030.78 1029.99 1029.15 1028.28
1020.12 1021.10 1022.03 1022.89 1023.68 1024.41 1025.08 1025.73 1026.36 1026.97 1027.58 1028.17 1028.73 1029.24 1029.70 1030.10 1030.44 1030.75 1031.03 1031.31 1031.60 1031.91 1032.25 1032.60 1032.94 1033.26 1033.54 1033.76 1033.90 1033.97 1033.96 1033.87 1033.71 1033.48 1033.17 1032.79 1032.33 1031.79 1031.17 1030.47 1029.71 1028.91 1028.07
1019.33 1020.37 1021.33 1022.20 1023.00 1023.74 1024.44 1025.10 1025.76 1026.40 1027.03 1027.64 1028.21 1028.73 1029.18 1029.57 1029.90 1030.19 1030.45 1030.71 1030.97 1031.26 1031.57 1031.89 1032.21 1032.51 1032.78 1033.00 1033.15 1033.24 1033.26 1033.20 1033.08 1032.89 1032.64 1032.30 1031.89 1031.40 1030.84 1030.20 1029.51 1028.76 1027.97
1018.52 1019.57 1020.54 1021.42 1022.23 1022.98 1023.70 1024.40 1025.09 1025.77 1026.44 1027.08 1027.67 1028.21 1028.68 1029.07 1029.40 1029.68 1029.92 1030.15 1030.39 1030.64 1030.90 1031.18 1031.46 1031.73 1031.98 1032.18 1032.33 1032.43 1032.47 1032.46 1032.38 1032.25 1032.05 1031.78 1031.45 1031.04 1030.56 1030.00 1029.39 1028.71 1027.97
1017.74 1018.79 1019.74 1020.62 1021.43 1022.19 1022.93 1023.66 1024.39 1025.11 1025.82 1026.50 1027.13 1027.68 1028.17 1028.57 1028.90 1029.16 1029.39 1029.60 1029.80 1030.01 1030.23 1030.46 1030.69 1030.91 1031.12 1031.30 1031.45 1031.56 1031.63 1031.66 1031.64 1031.57 1031.45 1031.27 1031.02 1030.70 1030.32 1029.85 1029.32 1028.72 1028.04
1017.07 1018.08 1019.00 1019.86 1020.66 1021.43 1022.19 1022.94 1023.71 1024.46 1025.20 1025.91 1026.55 1027.12 1027.61 1028.01 1028.33 1028.59 1028.80 1028.98 1029.15 1029.32 1029.49 1029.67 1029.86 1030.04 1030.21 1030.38 1030.52 1030.65 1030.75 1030.83 1030.88 1030.89 1030.85 1030.76 1030.61 1030.40 1030.10 1029.73 1029.27 1028.74 1028.12
1016.55 1017.50 1018.37 1019.20 1019.98 1020.75 1021.52 1022.29 1023.07 1023.84 1024.58 1025.29 1025.92 1026.48 1026.95 1027.34 1027.64 1027.88 1028.08 1028.24 1028.38 1028.52 1028.66 1028.80 1028.95 1029.10 1029.25 1029.41 1029.56 1029.71 1029.86 1030.00 1030.12 1030.21 1030.27 1030.28 1030.22 1030.09 1029.88 1029.58 1029.18 1028.70 1028.12
1016.20 1017.07 1017.89 1018.67 1019.44 1020.20 1020.97 1021.74 1022.50 1023.25 1023.97 1024.63 1025.23 1025.74 1026.17 1026.52 1026.80 1027.02 1027.20 1027.34 1027.48 1027.60 1027.72 1027.85 1027.98 1028.12 1028.27 1028.43 1028.60 1028.78 1028.98 1029.18 1029.38 1029.56 1029.70 1029.80 1029.82 1029.76 1029.61 1029.36 1029.01 1028.55 1028.00
1016.01 1016.80 1017.56 1018.31 1019.05 1019.80 1020.54 1021.29 1022.02 1022.72 1023.37 1023.96 1024.48 1024.92 1025.29 1025.59 1025.83 1026.03 1026.20 1026.35 1026.48 1026.61 1026.74 1026.87 1027.01 1027.15 1027.30 1027.48 1027.67 1027.89 1028.13 1028.40 1028.66 1028.92 1029.14 1029.30 1029.39 1029.39 1029.28 1029.05 1028.72 1028.27 1027.72
1016.00 1016.70 1017.40 1018.11 1018.82 1019.54 1020.26 1020.96 1021.64 1022.26 1022.82 1023.32 1023.74 1024.09 1024.39 1024.63 1024.84 1025.02 1025.19 1025.35 1025.51 1025.67 1025.82 1025.97 1026.12 1026.27 1026.43 1026.62 1026.83 1027.08 1027.36 1027.66 1027.98 1028.29 1028.57 1028.79 1028.92 1028.96 1028.87 1028.66 1028.33 1027.88 1027.31
1016.13 1016.76 1017.41 1018.08 1018.76 1019.45 1020.13 1020.78 1021.38 1021.91 1022.38 1022.77 1023.09 1023.35 1023.57 1023.76 1023.94 1024.12 1024.31 1024.50 1024.70 1024.89 1025.08 1025.25 1025.41 1025.57 1025.73 1025.91 1026.12 1026.37 1026.66 1026.99 1027.33 1027.68 1028.00 1028.26 1028.43 1028.49 1028.42 1028.22 1027.88 1027.42 1026.84
1016.43 1016.98 1017.58 1018.22 1018.87 1019.53 1020.16 1020.75 1021.28 1021.73 1022.10 1022.40 1022.63 1022.82 1022.99 1023.15 1023.32 1023.52 1023.73 1023.96 1024.20 1024.43 1024.64 1024.82 1024.98 1025.12 1025.26 1025.41 1025.58 1025.80 1026.08 1026.39 1026.74 1027.10 1027.44 1027.72 1027.92 1028.01 1027.96 1027.78 1027.45 1026.98 1026.40
1016.88 1017.37 1017.93 1018.53 1019.15 1019.77 1020.36 1020.90 1021.36 1021.74 1022.04 1022.27 1022.44 1022.59 1022.73 1022.89 1023.07 1023.29 1023.55 1023.82 1024.08 1024.33 1024.55 1024.72 1024.85 1024.94 1025.02 1025.10 1025.21 1025.37 1025.59 1025.87 1026.20 1026.55 1026.90 1027.21 1027.44 1027.56 1027.54 1027.38 1027.08 1026.63 1026.05
1017.49 1017.93 1018.44 1019.00 1019.59 1020.17 1020.72 1021.22 1021.64 1021.97 1022.22 1022.41 1022.56 1022.70 1022.84 1023.02 1023.23 1023.49 1023.77 1024.07 1024.35 1024.60 1024.79 1024.92 1024.98 1024.99 1024.98 1024.96 1024.98 1025.05 1025.19 1025.41 1025.71 1026.04 1026.39 1026.72 1026.98 1027.14 1027.18 1027.06 1026.80 1026.38 1025.83
1018.26 1018.64 1019.10 1019.62 1020.16 1020.71 1021.23 1021.69 1022.08 1022.39 1022.63 1022.81 1022.97 1023.12 1023.29 1023.49 1023.74 1024.03 1024.33 1024.63 1024.90 1025.11 1025.25 1025.30 1025.27 1025.18 1025.05 1024.92 1024.83 1024.80 1024.85 1025.01 1025.26 1025.57 1025.92 1026.27 1026.57 1026.78 1026.87 1026.81 1026.59 1026.23 1025.71
1019.16 1019.49 1019.89 1020.35 1020.85 1021.36 1021.84 1022.27 1022.64 1022.94 1023.19 1023.39 1023.57 1023.75 1023.96 1024.19 1024.47 1024.76 1025.07 1025.35 1025.57 1025.72 1025.78 1025.74 1025.60 1025.39 1025.14 1024.89 1024.69 1024.56 1024.54 1024.63 1024.84 1025.13 1025.48 1025.85 1026.18 1026.44 1026.58 1026.58 1026.42 1026.11 1025.64
1020.14 1020.41 1020.75 1021.16 1021.60 1022.06 1022.50 1022.90 1023.25 1023.56 1023.81 1024.04 1024.24 1024.46 1024.69 1024.95 1025.23 1025.51 1025.79 1026.02 1026.18 1026.24 1026.21 1026.06 1025.81 1025.49 1025.14 1024.80 1024.50 1024.30 1024.22 1024.26 1024.43 1024.70 1025.05 1025.43 1025.79 1026.08 1026.26 1026.31 1026.21 1025.95 1025.53
1021.14 1021.35 1021.63 1021.97 1022.35 1022.75 1023.14 1023.51 1023.85 1024.14 1024.40 1024.64 1024.87 1025.10 1025.33 1025.59 1025.84 1026.09 1026.31 1026.47 1026.55 1026.52 1026.39 1026.15 1025.81 1025.41 1024.99 1024.58 1024.23 1023.98 1023.86 1023.87 1024.02 1024.28 1024.62 1024.99 1025.35 1025.66 1025.86 1025.94 1025.87 1025.65 1025.28
1022.07 1022.22 1022.44 1022.72 1023.04 1023.37 1023.71 1024.04 1024.34 1024.62 1024.87 1025.10 1025.32 1025.54 1025.76 1025.98 1026.19 1026.37 1026.51 1026.59 1026.57 1026.46 1026.25 1025.93 1025.54 1025.10 1024.64 1024.21 1023.86 1023.60 1023.47 1023.47 1023.60 1023.84 1024.16 1024.51 1024.85 1025.14 1025.34 1025.42 1025.37 1025.17 1024.85
1022.85 1022.97 1023.14 1023.35 1023.60 1023.88 1024.16 1024.43 1024.69 1024.94 1025.16 1025.36 1025.55 1025.73 1025.90 1026.06 1026.20 1026.30 1026.36 1026.34 1026.25 1026.06 1025.79 1025.44 1025.03 1024.58 1024.14 1023.73 1023.39 1023.16 1023.04 1023.04 1023.16 1023.38 1023.66 1023.97 1024.27 1024.52 1024.69 1024.75 1024.69 1024.51 1024.22
1023.45 1023.53 1023.66 1023.82 1024.02 1024.23 1024.45 1024.67 1024.88 1025.08 1025.25 1025.41 1025.55 1025.68 1025.78 1025.86 1025.91 1025.93 1025.89 1025.80 1025.63 1025.40 1025.10 1024.74 1024.34 1023.92 1023.52 1023.16 1022.87 1022.67 1022.57 1022.58 1022.68 1022.87 1023.10 1023.36 1023.59 1023.79 1023.91 1023.93 1023.87 1023.70 1023.44
1023.83 1023.89 1023.99 1024.11 1024.26 1024.42 1024.59 1024.76 1024.91 1025.05 1025.18 1025.28 1025.35 1025.41 1025.44 1025.44 1025.40 1025.33 1025.22 1025.06 1024.84 1024.57 1024.26 1023.91 1023.55 1023.18 1022.83 1022.53 1022.29 1022.13 1022.05 1022.06 1022.14 1022.28 1022.46 1022.64 1022.82 1022.95 1023.02 1023.02 1022.94 1022.79 1022.57
Thickness
5555 5549 5543 5536 5530 5524 5517 5510 5503 5496 5488 5480 5472 5463 5455 5447 5439 5430 5421 5412 5403 5394 5385 5376 5367 5357 5347 5337 5327 5317 5307 5298 5294 5299 5293 5283 5275 5266 5260 5251 5244 5240 5237
5547 5541 5534 5527 5520 5513 5506 5499 5491 5484 5476 5468 5459 5450 5441 5432 5424 5415 5405 5396 5387 5377 5368 5359 5349 5340 5329 5319 5308 5298 5287 5277 5270 5271 5273 5264 5256 5247 5242 5235 5229 5223 5219
5537 5531 5524 5518 5511 5504 5496 5488 5480 5472 5463 5454 5446 5436 5427 5418 5409 5400 5391 5381 5371 5362 5352 5343 5333 5323 5313 5302 5291 5280 5270 5260 5251 5247 5248 5244 5238 5229 5225 5221 5215 5209 5205
5529 5523 5517 5511 5503 5495 5486 5477 5469 5460 5451 5442 5433 5424 5414 5404 5394 5385 5375 5365 5355 5346 5336 5327 5318 5308 5298 5287 5277 5266 5256 5246 5236 5230 5227 5225 5220 5213 5206 5203 5204 5199 5195
5521 5515 5510 5501 5492 5483 5474 5465 5456 5447 5438 5429 5420 5409 5399 5389 5380 5370 5361 5351 5340 5330 5321 5313 5304 5294 5284 5274 5264 5254 5243 5233 5224 5216 5213 5209 5205 5198 5191 5186 5183 5185 5185
5514 5507 5498 5488 5479 5471 5462 5452 5443 5433 5424 5415 5406 5396 5386 5376 5367 5358 5347 5337 5327 5317 5308 5299 5290 5280 5270 5262 5253 5243 5233 5223 5211 5203 5200 5194 5189 5180 5175 5170 5165 5165 5169
5504 5495 5486 5477 5468 5459 5449 5439 5430 5421 5411 5401 5392 5383 5373 5364 5354 5345 5335 5324 5314 5305 5295 5286 5277 5267 5257 5248 5240 5232 5223 5213 5204 5196 5189 5182 5174 5167 5161 5159 5153 5148 5147
5492 5483 5475 5466 5456 5446 5436 5427 5418 5408 5398 5389 5380 5370 5360 5351 5341 5332 5322 5312 5302 5293 5284 5275 5266 5257 5246 5237 5229 5221 5212 5203 5194 5187 5180 5172 5163 5155 5148 5143 5137 5135 5136
5482 5474 5465 5455 5444 5434 5425 5416 5406 5395 5385 5377 5368 5357 5348 5339 5328 5318 5308 5299 5291 5283 5273 5263 5254 5245 5236 5226 5220 5213 5206 5197 5187 5179 5171 5163 5155 5146 5137 5131 5125 5118 5123
5476 5466 5454 5444 5434 5425 5416 5405 5394 5384 5375 5364 5354 5345 5336 5326 5315 5304 5294 5286 5278 5271 5262 5254 5245 5236 5227 5217 5209 5202 5195 5189 5180 5172 5163 5154 5146 5137 5128 5120 5113 5107 5105
5464 5452 5441 5432 5423 5414 5403 5391 5380 5370 5359 5350 5340 5332 5322 5313 5301 5291 5282 5274 5266 5258 5251 5244 5236 5226 5218 5210 5202 5195 5188 5180 5172 5163 5154 5146 5137 5129 5122 5113 5105 5099 5096
5447 5438 5428 5419 5409 5399 5388 5377 5366 5355 5344 5335 5325 5316 5307 5298 5288 5279 5270 5263 5254 5245 5241 5234 5226 5216 5209 5201 5193 5187 5179 5170 5160 5151 5142 5135 5128 5121 5114 5107 5100 5094 5090
5431 5422 5412 5402 5393 5384 5374 5363 5350 5339 5330 5322 5311 5304 5296 5285 5275 5267 5259 5251 5242 5235 5231 5224 5216 5207 5199 5192 5185 5177 5168 5158 5147 5138 5131 5125 5118 5112 5105 5100 5095 5091 5089
5414 5404 5394 5385 5375 5365 5357 5347 5336 5326 5316 5308 5298 5291 5282 5271 5262 5253 5245 5237 5230 5223 5217 5212 5205 5198 5189 5182 5173 5165 5155 5146 5137 5128 5121 5114 5107 5100 5094 5089 5086 5085 5086
5393 5383 5375 5366 5357 5347 5338 5330 5322 5314 5305 5296 5287 5276 5265 5257 5251 5242 5232 5224 5216 5208 5201 5195 5189 5182 5175 5167 5158 5150 5141 5131 5123 5116 5108 5101 5094 5089 5084 5079 5075 5073 5072
5371 5362 5353 5345 5336 5327 5317 5307 5302 5294 5286 5279 5270 5260 5251 5245 5237 5231 5223 5216 5207 5198 5189 5182 5176 5169 5162 5155 5147 5138 5128 5119 5111 5103 5095 5088 5082 5077 5073 5069 5065 5063 5063
5351 5342 5333 5324 5315 5306 5297 5289 5279 5272 5267 5260 5252 5245 5237 5230 5222 5215 5209 5201 5193 5185 5176 5170 5162 5155 5148 5141 5134 5126 5118 5109 5100 5091 5083 5076 5070 5065 5061 5058 5056 5055 5056
5328 5320 5312 5303 5295 5286 5277 5269 5260 5251 5242 5234 5229 5224 5218 5212 5205 5198 5191 5183 5174 5165 5158 5151 5144 5137 5129 5123 5116 5109 5101 5093 5085 5077 5069 5063 5057 5052 5049 5047 5046 5046 5047
5302 5294 5287 5279 5271 5263 5255 5246 5238 5229 5221 5213 5205 5200 5195 5190 5184 5178 5171 5161 5154 5146 5138 5131 5124 5117 5110 5104 5097 5089 5082 5075 5068 5061 5055 5049 5044 5040 5038 5038 5038 5038 5039
5274 5269 5262 5255 5247 5239 5232 5224 5216 5208 5200 5193 5186 5179 5173 5167 5160 5154 5147 5140 5132 5126 5119 5112 5105 5098 5091 5085 5077 5070 5063 5056 5049 5044 5039 5035 5032 5030 5030 5029 5030 5031 5032
5248 5243 5237 5230 5223 5217 5210 5203 5195 5187 5180 5172 5165 5160 5157 5147 5140 5132 5125 5118 5112 5106 5100 5093 5087 5080 5073 5066 5058 5051 5044 5038 5033 5028 5025 5023 5021 5021 5021 5022 5023 5024 5026
5223 5217 5211 5205 5199 5193 5186 5180 5173 5166 5159 5151 5145 5138 5136 5128 5120 5113 5106 5100 5094 5088 5082 5076 5069 5063 5056 5049 5042 5035 5028 5022 5018 5014 5012 5012 5012 5012 5013 5014 5016 5018 5021
5198 5193 5187 5181 5175 5169 5162 5155 5149 5143 5136 5130 5124 5118 5112 5106 5099 5094 5088 5082 5076 5071 5065 5059 5054 5048 5042 5035 5029 5022 5016 5011 5007 5004 5002 5002 5003 5005 5006 5007 5010 5012 5015
5174 5168 5163 5157 5151 5145 5139 5132 5126 5121 5115 5108 5102 5097 5091 5086 5080 5075 5070 5064 5059 5054 5049 5044 5039 5034 5029 5023 5017 5011 5006 5001 4998 4996 4995 4996 4997 4999 5001 5003 5006 5009 5012
5149 5144 5139 5133 5127 5122 5116 5111 5105 5099 5094 5088 5083 5078 5073 5067 5062 5057 5053 5048 5043 5039 5035 5031 5026 5022 5018 5013 5008 5003 4998 4994 4992 4990 4990 4991 4993 4996 4998 5000 5003 5006 5010
5125 5120 5115 5110 5104 5099 5094 5089 5084 5079 5074 5069 5065 5060 5055 5050 5046 5041 5037 5033 5029 5025 5022 5019 5016 5012 5008 5004 5000 4996 4992 4990 4989 4988 4988 4989 4991 4994 4996 4999 5002 5005 5009